Dewpoint
56 56 48 48 46 46 44 42 38 35 31 31 31 31 30 27 24 22 22 20 19 20 22 23 22 23 24 24 23 22 21 21 19 19 20 22 23 23 23 24 25 24 26
50 48 47 46 45 44 41 38 34 31 31 30 29 29 30 26 23 22 20 19 19 20 20 23 24 23 23 22 22 20 20 20 21 20 22 23 23 24 24 23 25 25 26
46 45 44 43 43 41 39 34 31 30 30 30 28 27 21 21 18 17 17 17 19 20 21 22 22 22 21 22 21 21 21 21 23 23 23 24 24 24 25 25 26 26 24
44 43 41 43 42 37 34 33 30 31 31 31 31 28 24 21 18 19 22 23 23 23 23 22 21 22 21 21 20 20 22 23 23 23 23 23 24 25 26 25 21 22 21
42 42 38 35 33 30 30 30 30 30 28 27 29 27 26 26 25 26 25 24 23 22 22 21 21 23 28 25 23 24 24 24 23 22 24 23 24 22 21 21 21 20 21
36 35 33 30 31 32 32 30 29 30 30 29 26 23 25 27 32 31 26 24 23 22 21 21 21 26 25 27 27 26 25 25 22 22 19 24 23 22 21 21 21 21 21
34 32 32 32 31 30 30 30 29 30 30 27 25 21 26 28 30 29 28 23 21 21 21 21 20 19 24 22 25 27 27 28 28 25 24 23 22 22 22 22 23 25 23
34 35 35 33 33 34 34 33 32 31 30 30 29 29 30 29 29 28 26 21 21 20 21 20 20 21 22 24 24 25 26 25 25 25 25 24 24 24 28 26 23 23 22
36 35 35 36 35 35 34 33 33 33 32 31 29 25 26 24 25 25 23 21 21 21 21 21 23 22 26 27 25 24 23 23 25 27 27 28 29 28 25 23 21 20 18
36 36 36 35 35 34 34 33 33 31 26 20 16 15 21 17 23 20 24 21 19 20 21 22 25 24 26 27 25 23 22 21 21 22 20 19 21 21 25 22 21 19 19
35 35 34 34 32 31 29 26 21 17 15 13 12 12 13 13 14 17 18 20 19 21 21 21 21 26 27 27 26 21 20 21 20 17 17 17 18 19 20 22 22 21 20
33 32 29 24 17 15 15 14 13 12 11 11 12 13 13 13 21 21 24 23 24 21 21 21 21 27 26 24 22 23 24 23 17 16 17 18 19 20 21 22 22 22 23
16 15 14 14 14 14 13 12 13 13 13 12 13 12 13 14 15 20 22 23 24 22 22 24 26 25 22 19 21 22 22 17 17 17 18 19 19 20 21 21 22 22 22
14 15 15 14 14 14 15 13 14 14 13 12 13 13 13 14 15 17 20 21 24 22 24 23 21 18 18 18 17 17 17 17 18 19 18 18 19 19 19 20 20 20 20
15 17 17 15 14 14 14 14 14 12 11 12 15 15 14 15 16 20 21 20 22 23 21 16 13 13 15 14 14 16 16 16 18 18 18 18 17 18 18 19 19 19 19
14 15 15 14 13 14 14 15 20 18 19 18 20 17 15 18 18 20 23 23 24 23 14 12 13 14 14 14 14 15 16 18 17 18 18 18 18 17 17 19 20 19 18
16 16 17 14 12 11 10 8 6 10 16 15 14 14 15 17 19 21 23 22 19 17 12 13 14 14 14 15 15 15 15 16 16 18 17 17 17 18 19 17 17 18 18
17 20 14 13 12 11 9 7 6 7 5 4 11 15 16 17 19 21 19 15 12 13 13 13 14 14 15 15 15 15 15 16 16 17 18 18 17 17 17 17 17 18 18
14 14 13 12 11 10 7 6 7 5 4 5 8 11 14 19 19 16 15 11 12 12 12 13 14 14 15 15 15 14 14 15 18 18 15 16 17 17 17 17 18 22 23
14 17 13 9 8 6 6 8 7 5 5 7 8 9 11 14 11 10 10 11 11 12 12 14 15 15 15 14 13 14 15 15 15 16 16 18 18 19 18 18 18 20 20
14 14 14 7 6 6 7 8 7 6 7 8 9 11 17 10 9 9 9 10 11 12 14 15 16 15 14 13 14 15 15 15 15 16 17 18 19 19 20 21 21 21 22
9 8 7 6 5 7 9 7 6 8 9 9 10 10 15 10 9 10 11 12 12 14 16 17 16 15 16 16 16 15 15 15 16 18 19 19 20 21 21 22 24 26 26
6 5 5 5 6 9 7 7 8 9 10 10 10 9 10 11 12 13 13 13 14 14 15 16 17 16 17 18 18 18 17 16 18 19 19 20 21 23 25 26 26 26 26
6 5 5 5 7 7 7 8 8 10 11 10 10 11 13 13 14 14 14 12 13 12 14 16 17 17 17 18 18 20 21 20 21 21 23 26 30 30 28 27 27 27 28
5 5 5 6 6 6 7 8 9 11 11 11 12 13 13 13 13 12 11 12 12 13 13 15 15 14 15 17 18 19 21 26 29 30 32 32 31 29 29 28 29 29 28
6 5 5 6 7 7 8 9 11 12 12 12 13 11 12 12 13 12 12 12 12 13 12 13 14 12 13 16 19 22 27 29 30 33 34 33 31 30 29 30 28 27 28
Lifted_Index
-1 -1 -1 -1 -2 -2 -2 -1 -1 -1 -1 -1 0 2 4 6 8 8 9 9 9 9 9 9 10 13 15 16 17 17 17 17 17 17 19 21 21 21 21 22 22 22 22
-1 -2 -1 -1 -1 -2 -1 -1 -1 -1 -1 -0 1 2 5 7 8 9 9 9 9 9 9 9 11 13 15 16 17 17 18 18 18 18 19 20 21 21 21 22 22 22 22
-2 -2 -2 -1 -1 -1 -1 -1 -1 -0 0 1 3 5 7 9 10 10 10 10 9 9 10 10 12 14 16 17 17 18 18 19 19 18 19 20 21 21 21 22 22 22 22
-2 -2 -2 -2 -2 -1 -1 -1 0 1 3 4 6 8 10 11 12 12 11 10 10 10 12 13 15 16 17 18 18 19 19 19 19 19 19 20 20 21 21 21 21 21 21
-2 -2 -2 -2 -1 -1 -0 -0 1 4 6 8 10 11 12 13 13 12 12 11 11 12 14 16 17 18 19 19 19 19 20 20 20 20 20 20 20 21 21 21 20 20 19
-1 -1 -1 -1 -1 -0 1 2 4 7 9 11 12 12 13 13 13 12 12 13 13 14 16 17 18 19 20 20 20 20 20 20 20 20 20 20 21 21 21 20 19 17 16
0 0 0 0 1 1 3 5 8 10 11 11 12 13 13 13 13 13 15 16 16 17 17 18 18 19 20 20 20 20 20 20 20 20 21 21 21 21 20 19 17 16 15
3 3 3 3 3 5 6 9 10 10 11 11 12 12 12 13 14 16 17 18 18 18 19 19 19 20 20 21 21 20 20 20 21 21 21 21 21 20 18 17 16 15 14
7 7 7 7 7 8 9 9 10 10 10 11 12 13 13 15 17 18 18 19 18 19 19 20 20 21 21 21 20 20 21 21 21 21 21 20 19 17 17 16 15 14 13
9 9 9 9 9 10 10 10 10 11 11 13 14 15 16 18 19 19 19 19 18 18 19 20 21 21 21 20 20 21 21 21 21 20 18 17 16 16 15 15 14 13 12
10 10 10 10 10 11 11 11 12 12 13 14 16 17 18 19 20 20 20 20 19 19 20 21 21 21 21 21 21 21 22 21 20 18 16 15 14 14 14 14 13 12 11
10 10 11 11 11 12 12 13 14 14 15 16 17 18 19 20 21 21 21 21 21 21 21 21 21 21 21 22 22 22 21 20 17 15 14 14 14 13 13 12 12 11 10
10 10 11 12 12 13 14 15 16 16 17 17 18 18 19 20 20 21 22 22 22 22 22 22 22 22 22 22 22 21 19 17 16 14 14 13 13 13 12 12 11 10 10
9 10 11 13 14 15 16 17 17 18 18 18 18 18 19 19 20 21 22 22 22 22 22 22 22 22 22 22 21 19 17 16 15 14 14 13 13 12 12 12 11 10 10
11 12 13 15 16 17 18 18 18 19 19 19 19 19 19 20 21 22 22 22 22 22 22 22 21 21 21 20 18 17 16 15 15 14 13 13 12 12 12 11 11 11 10
14 14 15 16 17 17 18 18 19 19 20 20 21 21 21 22 22 23 23 23 22 22 22 21 21 20 18 17 16 15 15 14 14 14 13 13 12 12 12 12 12 11 11
16 16 17 17 17 17 17 17 18 19 20 21 22 22 23 23 23 23 23 23 23 22 21 20 19 18 16 15 14 14 14 14 14 13 13 13 12 12 12 12 12 12 11
17 17 17 17 17 17 17 18 18 18 19 20 22 23 23 23 24 24 23 23 22 21 20 19 17 16 15 14 14 14 14 13 13 13 13 12 12 12 12 12 12 12 12
17 17 17 17 17 18 18 18 18 19 19 20 21 22 23 23 23 23 23 22 21 20 18 17 16 15 14 14 14 14 13 13 13 13 12 12 12 11 11 11 12 12 12
17 17 17 17 18 18 18 18 19 19 20 20 21 22 23 23 23 23 22 21 19 18 17 16 15 15 14 14 13 13 13 13 13 12 12 11 11 11 11 11 11 11 11
17 17 17 18 18 18 18 19 19 20 20 21 22 23 23 23 23 22 20 19 18 17 16 15 15 14 14 13 13 13 12 12 12 12 12 11 11 11 11 11 11 11 11
17 17 17 17 18 18 19 19 20 21 21 22 23 23 24 23 22 21 19 18 17 17 16 15 14 14 13 13 12 12 12 12 12 12 12 11 11 11 11 10 11 11 12
17 17 17 18 18 19 20 20 21 21 22 22 23 23 23 23 22 21 19 18 17 17 16 15 14 14 13 13 13 12 12 12 12 12 12 12 11 11 11 11 11 11 12
17 17 17 18 19 19 20 20 21 22 22 23 23 23 23 22 22 20 19 18 17 16 16 15 14 14 13 13 13 12 12 12 12 12 12 12 12 12 12 11 11 12 12
18 18 18 19 19 19 20 21 21 22 23 23 23 22 22 21 21 20 19 18 17 16 15 14 14 13 13 13 12 12 12 12 12 12 12 12 12 12 12 12 12 12 13
18 18 19 19 19 20 20 21 22 22 23 23 22 22 21 21 20 19 18 18 16 15 14 14 13 13 13 12 12 12 12 12 12 12 12 12 12 12 12 12 12 12 13